Location: Kaarina
(60.4167°N, 22.4167°E)
Time: 09:54:26
(UTC+03:00)

Cosmos 839 Rocket - Pass Details

Date: 24 August 2019
Orbit: 968 x 2084 km, 65.9° (Epoch: 15 September)

Event Time Altitude Azimuth Distance (km) Brightness Sun altitude
Rises 23:37:39 0° 232° (SW) 4,525 7.4 -15.0°
Reaches altitude 10° 23:40:48 10° 233° (SW) 3,391 6.7 -15.2°
Maximum altitude 23:48:45 90° 267° (W) 1,145 4.3 -15.7°
Drops below altitude 10° 23:55:17 10° 56° (NE) 2,813 6.5 -16.0°
Sets 23:57:41 0° 56° (ENE) 3,714 7.2 -16.1°
